Location: Gollag?dem
(16.8053°N, 80.8024°E)
Time: 14:27:58
(UTC+00:00)

Chandra Rocket (1) - Pass Details

Date: 13 August 2020
Orbit: 336 x 11016 km, 28.4° (Epoch: 24 September)

Event Time Altitude Azimuth Distance (km) Brightness Sun altitude
Exits shadow 23:07:47 22° 250° (WSW) 3,685 5.3 -17.3°
Maximum altitude 23:15:10 78° 334° (NNW) 1,041 3.1 -15.7°
Drops below altitude 10° 23:19:12 10° 61° (ENE) 1,938 6.0 -14.8°
Sets 23:20:39 0° 63° (ENE) 2,566 7.1 -14.4°
